[[{"header":{"parameterUnit":"m.s-1","parameterCategory":1,"la1":30.2991,"la2":30.254,"lo1":-89.0895,"lo2":-89.0444,"dy":0.0017,"dx":0.0017,"nx":28,"ny":28,"refTime":"2024-02-29T09:00:00:Z","depth":0,"parameterNumber":2,"parameterNumberName":"U-component_of_WINDS"},"data":[0,0,0,0,0,0,0,0,0,0,0,0,0,0,0,0,0,0,0,0,0,0,0,0,0,0,0,0,0,0,0,0,0,0,0,0,0,0,0,0,0,0,0,0,0,0,0,0,0,0,0,0,0,0,0,0,0,0,-6.3434,-6.3435,0,-6.3497,-6.3497,-6.3498,-6.3358,-6.3354,-6.3349,-6.3345,-6.3408,-6.3414,-6.342,0,0,0,0,0,0,0,0,0,0,0,0,0,-6.3192,-6.3197,-6.3434,-6.3435,-6.3436,-6.3497,-6.3497,-6.3498,-6.3359,-6.3353,-6.3348,-6.3343,-6.3406,-6.3413,-6.342,0,0,0,0,0,0,0,0,0,0,0,0,0,-6.328,-6.3199,-6.3434,-6.3373,-6.3368,-6.3496,-6.3497,-6.3498,-6.336,-6.3353,-6.3346,-6.334,-6.3404,-6.3413,-6.3421,-6.3611,0,0,-6.3448,-6.3452,0,0,0,0,0,0,0,0,-6.3275,-6.3289,-6.3381,-6.3378,-6.3373,-6.3413,-6.3435,-6.3536,-6.3362,-6.3363,-6.3345,-6.3337,-6.3415,-6.3423,-6.3449,-6.3614,-6.3616,-6.3449,-6.3455,-6.3458,-6.3461,0,0,0,0,0,0,0,-6.3269,-6.3286,-6.3459,-6.3383,-6.3378,-6.3342,-6.3348,-6.3454,-6.3426,-6.3363,-6.3353,-6.3362,-6.3411,-6.3441,-6.345,-6.3617,-6.3449,-6.3457,-6.3462,-6.3466,-6.394,-6.3947,0,0,0,0,0,0,-6.3271,-6.3281,-6.3457,-6.346,-6.3306,-6.3352,-6.3358,-6.3407,-6.3425,-6.3421,-6.3368,-6.3355,-6.3429,-6.344,-6.3451,-6.3674,-6.3458,-6.3467,-6.3472,-6.3933,-6.3941,-6.3949,0,0,0,0,0,0,-6.3266,-6.3288,-6.3454,-6.3368,-6.3387,-6.3364,-6.3419,-6.3411,-6.3441,-6.3429,-6.3423,-6.3403,-6.3424,-6.3439,-6.3572,-6.3675,-6.347,-6.3479,-6.3924,-6.3935,-6.3945,-6.4122,0,0,0,0,0,0,-6.326,-6.3287,-6.3359,-6.3371,-6.3392,-6.3575,-6.3426,-6.3417,-6.3456,-6.3441,-6.346,-6.3457,-6.342,-6.356,-6.3581,-6.3683,-6.3485,-6.3915,-6.3929,-6.3942,-6.4107,-6.4138,-6.4164,0,0,0,0,0,-6.3252,-6.3407,-6.3364,-6.3386,-6.3482,-6.3581,-6.3593,-6.3548,-6.3465,-6.3537,-6.3529,-6.3456,-6.366,-6.3575,-6.3597,-6.3704,-6.3908,-6.3925,-6.3941,-6.4094,-6.4132,-6.4164,0,0,0,0,0,0,-6.3407,-6.3407,-6.336,-6.3523,-6.3553,-6.3557,-6.3647,-6.3589,-6.3643,-6.3626,-6.3567,-6.3573,-6.3718,-6.3723,-6.3628,-6.3888,-6.377,-6.3792,-6.3879,-6.3914,-6.3942,-6.3938,-6.3493,0,0,0,0,0,-6.3461,-6.3542,-6.3537,-6.3681,-6.3699,-6.3671,-6.3712,-6.3675,-6.3704,-6.3716,-6.3717,-6.3748,-6.3818,-6.3866,-6.3931,-6.4107,-6.4109,-6.4191,-6.422,-6.4243,-6.4263,-6.4357,-6.4393,-6.4003,-6.4003,-6.4003,0,0,-6.3572,-6.3581,-6.3636,-6.3713,-6.3732,-6.3817,-6.3682,-6.3778,-6.3841,-6.373,-6.3856,-6.3859,-6.3889,-6.4045,-6.4113,-6.4054,-6.4371,-6.4264,-6.4283,-6.429,-6.4377,-6.4414,-6.4447,-6.4014,-6.4012,-6.4011,0,0,-6.3818,-6.3833,-6.3955,-6.3977,-6.4008,-6.3988,-6.4017,-6.403,-6.4028,-6.4153,-6.4072,-6.4145,-6.4268,-6.4293,-6.4322,-6.4577,-6.4512,-6.4599,-6.4749,-6.4841,-6.4871,-6.4898,-6.499,-6.5023,-6.4619,-6.4619,-6.4619,0,-6.3952,-6.4077,-6.4025,-6.4127,-6.4163,-6.4066,-6.419,-6.4213,-6.4263,-6.429,-6.4223,-6.4375,-6.4389,-6.4549,-6.4611,-6.4637,-6.4669,-6.4597,-6.4871,-6.4898,-6.4922,-6.5009,-6.5043,-6.463,-6.4628,-6.4627,-6.4626,0,-6.4241,-6.4329,-6.4424,-6.4475,-6.4521,-6.4634,-6.4598,-6.4651,-6.4609,-6.4597,-6.4726,-6.4738,-6.4803,-6.4838,-6.4798,-6.4993,-6.4955,-6.4881,-6.4762,-6.4971,-6.5051,-6.5084,-6.4645,-6.4641,-6.4638,-6.4635,0,0,-6.4588,-6.4609,-6.4644,-6.4667,-6.4693,-6.476,-6.4867,-6.4931,-6.4978,-6.5015,-6.5104,-6.521,-6.5141,-6.5174,-6.5135,-6.5216,-6.5418,-6.5131,-6.5131,-6.5185,-6.5634,-6.5691,-6.573,-6.5374,-6.538,-6.5385,-6.5631,0,-6.4832,-6.5017,-6.4973,-6.5156,-6.5237,-6.5146,-6.5239,-6.5265,-6.5256,-6.5322,-6.5311,-6.5388,-6.529,-6.531,-6.5385,-6.5377,-6.5507,-6.5359,-6.5456,-6.546,-6.5453,-6.5772,-6.5832,-6.6064,-6.5662,-6.5668,-6.5671,0,-6.5142,-6.5192,-6.5383,-6.5396,-6.5428,-6.5513,-6.5568,-6.5633,-6.566,-6.5647,-6.5685,-6.563,-6.5735,-6.5614,-6.5759,-6.5659,-6.5696,-6.5698,-6.5705,-6.5714,-6.558,-6.579,-6.6137,-6.6173,-6.572,-6.5716,-6.5713,0,-6.5377,-6.5492,-6.5621,-6.5642,-6.5661,-6.5723,-6.5733,-6.5753,-6.5795,-6.5842,-6.5869,-6.5928,-6.5961,-6.6008,-6.5971,-6.5886,-6.6122,-6.5997,-6.6114,-6.6116,-6.6169,-6.6166,-6.6529,-6.6192,-6.6191,-6.619,-6.619,0,-6.5655,-6.5776,-6.5727,-6.5807,-6.5939,-6.5887,-6.6019,-6.6018,-6.6038,-6.6115,-6.604,-6.6114,-6.606,-6.613,-6.6101,-6.6225,-6.624,-6.6233,-6.6224,-6.6241,-6.6242,-6.6265,-6.6248,-6.6199,-6.6197,-6.6196,-6.6194,0,-6.5941,-6.5913,-6.6048,-6.6054,-6.6058,-6.6156,-6.616,-6.6234,-6.6218,-6.6318,-6.6338,-6.6314,-6.6392,-6.6359,-6.6442,-6.6422,-6.6582,-6.6551,-6.6573,-6.6566,-6.6685,-6.6675,-6.7075,-6.7125,-6.6756,-6.6759,-6.6762,0,-6.6121,-6.6211,-6.6227,-6.6274,-6.629,-6.6366,-6.6408,-6.6359,-6.6406,-6.6444,-6.6513,-6.6584,-6.6639,-6.6768,-6.6758,-6.682,-6.6791,-6.6927,-6.68,-6.6813,-6.6794,-6.6789,-6.6798,-6.6953,-6.6957,-6.6961,-6.6964,0,-6.6443,-6.6425,-6.6488,-6.6547,-6.6599,-6.6643,-6.668,-6.6723,-6.6675,-6.6731,-6.681,-6.6853,-6.6937,-6.7009,-6.7064,-6.7073,-6.7012,-6.7003,-6.7034,-6.7052,-6.7062,-6.7059,-6.6644,-6.6995,-6.6992,-6.6989,-6.6988,-6.6986,-6.6682,-6.6758,-6.6782,-6.6855,-6.6878,-6.6914,-6.6984,-6.6977,-6.7042,-6.7107,-6.7074,-6.7166,-6.719,-6.7258,-6.7276,-6.7347,-6.7293,-6.7338,-6.7349,-6.7361,-6.7377,-6.705,-6.7357,-6.7356,-6.7355,-6.7354,-6.7353,0,-6.7001,-6.7012,-6.7079,-6.7134,-6.7191,-6.7127,-6.7165,-6.7217,-6.7299,-6.7327,-6.7382,-6.7473,-6.7542,-6.7537,-6.7601,-6.7659,-6.7632,-6.7677,-6.7673,-6.7676,-6.7421,-6.7388,-6.7698,-6.7698,-6.7698,-6.7698,-6.7698,-6.7698,-6.7174,-6.7301,-6.7285,-6.7422,-6.743,-6.7521,-6.7548,-6.7581,-6.7603,-6.7708,-6.7765,-6.7761,-6.7776,-6.7839,-6.79,-6.7896,-6.7924,-6.798,-6.7967,-6.7728,-6.7694,-6.7662,-6.7631,-6.7986,-6.7987,-6.8216,-6.8218,-6.822]},{"header":{"parameterUnit":"m.s-1","parameterCategory":1,"la1":30.2991,"la2":30.254,"lo1":-89.0895,"lo2":-89.0444,"dy":0.0017,"dx":0.0017,"nx":28,"ny":28,"refTime":"2024-02-29T09:00:00:Z","depth":0,"parameterNumber":3,"parameterNumberName":"V-component_of_WINDS"},"data":[0,0,0,0,0,0,0,0,0,0,0,0,0,0,0,0,0,0,0,0,0,0,0,0,0,0,0,0,0,0,0,0,0,0,0,0,0,0,0,0,0,0,0,0,0,0,0,0,0,0,0,0,0,0,0,0,0,0,-6.1798,-6.1799,0,-6.1847,-6.1847,-6.1848,-6.1775,-6.1773,-6.177,-6.1768,-6.1814,-6.1818,-6.1821,0,0,0,0,0,0,0,0,0,0,0,0,0,-6.1638,-6.1641,-6.1798,-6.1799,-6.1799,-6.1847,-6.1847,-6.1848,-6.1776,-6.1773,-6.177,-6.1767,-6.1813,-6.1817,-6.1822,0,0,0,0,0,0,0,0,0,0,0,0,0,-6.1699,-6.1642,-6.1798,-6.1769,-6.1767,-6.1847,-6.1847,-6.1848,-6.1777,-6.1773,-6.1769,-6.1765,-6.1812,-6.1817,-6.1822,-6.1931,0,0,-6.1839,-6.1841,0,0,0,0,0,0,0,0,-6.1696,-6.1705,-6.1773,-6.1771,-6.1769,-6.1801,-6.1808,-6.1876,-6.1778,-6.1773,-6.1768,-6.1764,-6.1813,-6.1818,-6.1835,-6.1933,-6.1935,-6.1839,-6.1842,-6.1845,-6.1846,0,0,0,0,0,0,0,-6.1692,-6.1703,-6.1817,-6.1774,-6.1772,-6.1752,-6.1757,-6.182,-6.1813,-6.1773,-6.1768,-6.1775,-6.1811,-6.183,-6.1836,-6.1936,-6.1839,-6.1844,-6.1847,-6.1849,-6.2124,-6.2128,0,0,0,0,0,0,-6.1691,-6.17,-6.1816,-6.1819,-6.1722,-6.1758,-6.1763,-6.1795,-6.1812,-6.1812,-6.1778,-6.1771,-6.1823,-6.183,-6.1837,-6.1964,-6.1845,-6.185,-6.1853,-6.212,-6.2125,-6.2129,0,0,0,0,0,0,-6.1688,-6.1703,-6.1814,-6.1758,-6.177,-6.1765,-6.1801,-6.1798,-6.1817,-6.1816,-6.1814,-6.1799,-6.182,-6.1829,-6.1908,-6.1965,-6.1852,-6.1857,-6.2115,-6.2121,-6.2127,-6.2221,0,0,0,0,0,0,-6.1684,-6.1702,-6.1745,-6.1759,-6.1774,-6.1886,-6.1804,-6.1801,-6.1827,-6.1818,-6.1836,-6.1835,-6.1818,-6.19,-6.1913,-6.197,-6.1861,-6.211,-6.2118,-6.2125,-6.2213,-6.223,-6.2244,0,0,0,0,0,-6.1679,-6.1769,-6.1747,-6.1761,-6.1827,-6.1889,-6.1897,-6.1877,-6.1832,-6.1873,-6.1873,-6.1834,-6.1957,-6.1909,-6.1923,-6.1983,-6.2106,-6.2115,-6.2124,-6.2206,-6.2227,-6.2244,0,0,0,0,0,0,-6.176,-6.177,-6.1746,-6.1844,-6.1867,-6.1877,-6.1929,-6.19,-6.1934,-6.1925,-6.1897,-6.1901,-6.1986,-6.1992,-6.1939,-6.2088,-6.2024,-6.2036,-6.2081,-6.21,-6.2116,-6.2112,-6.1866,0,0,0,0,0,-6.1789,-6.184,-6.1846,-6.1932,-6.1944,-6.1935,-6.1961,-6.1944,-6.1965,-6.1974,-6.1979,-6.2,-6.2043,-6.2072,-6.2112,-6.2213,-6.2215,-6.2261,-6.2277,-6.229,-6.23,-6.2353,-6.2373,-6.2159,-6.2159,-6.2159,0,0,-6.1851,-6.1862,-6.1896,-6.1948,-6.1964,-6.2015,-6.1943,-6.2002,-6.2039,-6.1982,-6.2057,-6.2061,-6.2083,-6.2173,-6.2213,-6.2181,-6.236,-6.2301,-6.2311,-6.2315,-6.2364,-6.2385,-6.2403,-6.2165,-6.2164,-6.2163,0,0,-6.1988,-6.2003,-6.2076,-6.2092,-6.2116,-6.2109,-6.2127,-6.2142,-6.2143,-6.2217,-6.2175,-6.2219,-6.2294,-6.2311,-6.2329,-6.2472,-6.2437,-6.2485,-6.2567,-6.2618,-6.2635,-6.265,-6.2699,-6.2718,-6.2496,-6.2496,-6.2496,0,-6.2061,-6.2139,-6.2116,-6.2177,-6.2201,-6.2152,-6.2224,-6.2241,-6.2277,-6.2293,-6.2257,-6.2349,-6.236,-6.2453,-6.2488,-6.2505,-6.2522,-6.2483,-6.2635,-6.2649,-6.2663,-6.271,-6.2728,-6.2502,-6.2501,-6.2501,-6.25,0,-6.2226,-6.2281,-6.2336,-6.2372,-6.2402,-6.2468,-6.2454,-6.2486,-6.2466,-6.2462,-6.2537,-6.2549,-6.2589,-6.261,-6.2591,-6.27,-6.2679,-6.2639,-6.2574,-6.2689,-6.2733,-6.275,-6.251,-6.2508,-6.2506,-6.2505,0,0,-6.2417,-6.244,-6.246,-6.2475,-6.2498,-6.2538,-6.2601,-6.2642,-6.267,-6.2695,-6.2746,-6.2811,-6.2773,-6.2794,-6.2776,-6.2821,-6.2932,-6.2775,-6.2775,-6.2803,-6.3051,-6.3081,-6.3102,-6.2909,-6.2912,-6.2915,-6.3049,0,-6.2554,-6.2664,-6.2645,-6.2752,-6.28,-6.2754,-6.2809,-6.2828,-6.2826,-6.2865,-6.2862,-6.2908,-6.2856,-6.2868,-6.2911,-6.2909,-6.2981,-6.2899,-6.2955,-6.2957,-6.295,-6.3125,-6.3156,-6.3282,-6.3066,-6.3069,-6.3071,0,-6.2728,-6.2761,-6.2873,-6.2886,-6.2906,-6.2955,-6.299,-6.3029,-6.3049,-6.3044,-6.3067,-6.3039,-6.31,-6.3035,-6.3117,-6.3062,-6.3083,-6.3086,-6.309,-6.3094,-6.3021,-6.3133,-6.3322,-6.3341,-6.3098,-6.3096,-6.3094,0,-6.2855,-6.2927,-6.3002,-6.3017,-6.3035,-6.307,-6.3079,-6.3095,-6.312,-6.315,-6.3165,-6.3202,-6.3222,-6.325,-6.3232,-6.3186,-6.3317,-6.325,-6.3313,-6.3314,-6.3343,-6.3341,-6.3538,-6.3358,-6.3358,-6.3357,-6.3357,0,-6.3009,-6.3079,-6.306,-6.3106,-6.3182,-6.3159,-6.3234,-6.3237,-6.3251,-6.3296,-6.3258,-6.3301,-6.3276,-6.3316,-6.3302,-6.3372,-6.3381,-6.3378,-6.3373,-6.3381,-6.3382,-6.3394,-6.3385,-6.3362,-6.3361,-6.336,-6.336,0,-6.3164,-6.3154,-6.3233,-6.3243,-6.3247,-6.3303,-6.331,-6.3353,-6.3348,-6.3405,-6.3417,-6.3408,-6.3454,-6.3439,-6.3488,-6.3478,-6.3566,-6.3551,-6.356,-6.3556,-6.362,-6.3614,-6.3831,-6.3857,-6.3662,-6.3664,-6.3665,0,-6.3263,-6.3315,-6.3331,-6.3359,-6.3371,-6.3416,-6.3441,-6.3419,-6.3447,-6.3472,-6.3512,-6.3554,-6.3586,-6.366,-6.3657,-6.3694,-6.3678,-6.3752,-6.3684,-6.3689,-6.3678,-6.3675,-6.3679,-6.3765,-6.3768,-6.377,-6.3771,0,-6.3438,-6.3431,-6.3469,-6.3506,-6.3538,-6.3565,-6.3589,-6.3614,-6.3593,-6.3626,-6.3672,-6.3698,-6.3747,-6.3789,-6.3822,-6.3828,-6.3796,-6.3793,-6.3809,-6.3817,-6.382,-6.3818,-6.3597,-6.3788,-6.3786,-6.3785,-6.3784,-6.3783,-6.3567,-6.3611,-6.3629,-6.3673,-6.3689,-6.3712,-6.3752,-6.3752,-6.379,-6.3829,-6.3814,-6.3867,-6.3882,-6.3923,-6.3935,-6.3975,-6.3946,-6.397,-6.3976,-6.3982,-6.399,-6.3814,-6.3981,-6.398,-6.398,-6.3979,-6.3979,0,-6.374,-6.3749,-6.379,-6.3825,-6.3859,-6.3826,-6.3851,-6.3881,-6.3928,-6.3947,-6.3979,-6.4032,-6.4072,-6.4072,-6.4108,-6.414,-6.4126,-6.415,-6.4147,-6.4149,-6.4014,-6.3996,-6.4161,-6.4161,-6.4161,-6.4161,-6.4161,-6.4161,-6.3834,-6.3907,-6.3901,-6.398,-6.3988,-6.404,-6.4057,-6.4077,-6.4091,-6.4152,-6.4185,-6.4185,-6.4196,-6.4232,-6.4267,-6.4266,-6.4281,-6.4311,-6.4304,-6.4177,-6.4159,-6.4142,-6.4124,-6.4314,-6.4314,-6.4435,-6.4437,-6.4437]}]]